Tracking 19286 objects as of 19-Nov-2018
HD Live streaming from Space Station
objects crossing your sky now

OPS 6026 (DMSP 4A F1)

Track OPS 6026 (DMSP 4A F1) now!
10-day predictions
OPS 6026 (DMSP 4A F1) is classified as:


NORAD ID: 2418
Int'l Code: 1966-082A
Perigee: 674.4 km
Apogee: 845.7 km
Inclination: 98.2 °
Period: 99.9 minutes
Semi major axis: 7131 km
RCS: 0.634 m2 (medium)
Launch date: September 16, 1966
Source: United States (US)
Launch site: AIR FORCE WESTERN TEST RANGE (AFWTR)
aabbcc
Your satellite tracking list
Your tracking list is empty




NASA's NSSDC Master Catalog

Two Line Element Set (TLE):
1  2418U 66082A   18322.79158964 +.00000014 +00000-0 +16507-4 0  9990
2  2418 098.2333 172.0543 0120068 129.3442 231.8462 14.41699075734072
Source of the keplerian elements: AFSPC